User: anonymous   Login
Location: Limerick
(52.6800°N, 8.6400°W)
Time: 10:05:10
(UTC+00:00)
Language:

Sapphire - Orbit

View from above orbital plane
View from above orbital plane
View from above satellite
View from above satellite

Ground track
Ground track

The orbit data is extracted from the following two-line orbital elements,

1 26932U 01043D   17347.51288711 -.00000019 +00000-0 +24460-4 0  9996
2 26932 067.0562 351.0922 0004989 248.6006 111.4563 14.30267430845949
Epoch (UTC): 13 December 2017 12:18:33
Eccentricity: 0.0004989
inclination: 67.0562°
perigee height: 787 km
apogee height: 794 km
right ascension of ascending node: 351.0922°
argument of perigee: 248.6006°
revolutions per day: 14.30267430
mean anomaly at epoch: 111.4563°
orbit number at epoch: 84594

The dashed part of the orbit path shows where the satellite is in the earth's shadow,  

DLR